SCOUT A DEB, 2141

Orbit data source: Space-Track

SCOUT A DEB, 2141 is space debris in LEO originally from a launch on Fri, 28 Jan 1966 UTC launched from the Air Force Western Test Range (AFWTR). Debris objects in space refer to the collection of defunct objects orbiting the Earth. Examples of debris include non-operational satellites, rocket bodies, and fragments generated from explosions, collisions, or faulty payload assembly.

Loading next visibility...
Identifier
2141, 1966-005D
Orbit
LEO
Country
Flag of USUS
Related business
Manufacturer
Unknown
Mission
Spacecraft
Bus & Motor
Unknown
Mass
Unknown
Launch date (UTC)
1966-01-28 (60 years ago)
Launch vehicle
Unknown
Launch site
Air Force Western Test Range (AFWTR)
Object type
Payload
Rocket body
Debris
Shape & HBR
Unknown
Radar Cross Section
Small (<0.1 m²)

Expand to show TLE details & history
Last TLE update: 1 day ago

TLE from 1 day ago
0 SCOUT A DEB
1 02141U 66005D   25241.98596716  .00000599  00000-0  34422-3 0  9991
2 02141  90.2274 250.9361 0113171 267.6633  91.1588 14.05403985 27670
Epoch: 2025-08-29T23:39Z
TLE epoch observation values (Epoch: 2025-08-29T23:39:47.562Z)
Latitude
-0.00004°
Longitude
-82.43883°
Altitude
880.765 km
Speed
7.41 km/s
True Right ascension
16h 43m 44s
True Declination
0° 00' 00"
Sunlit
Object was in daylight at epoch
Visualization orbit readout
Latitude
Unknown
Longitude
Unknown
Altitude
Unknown
Speed
Unknown
Apparent Right ascension
Unknown
Apparent Declination
Unknown
Sunlit
N/A
Visualization observer readout
Local Sidereal Time
15:34:29
Azimuth
Unknown
Elevation
Unknown
Doppler factor
Unknown
Orbital elements
Apogee altitude
954.163 km
Perigee altitude
790.059 km
Semi-major axis
7,250.248 km
Eccentricity
0.01132
Inclination
90.2274°
RAAN
250.9361°
Arg. of periapsis
267.6633°
True anomaly
92.4549°
Mean anomaly
91.1588°
Eccentric anomaly
91.8069°
Mean motion
3.51572 °/min
Orbital period
102.4 mins
BSTAR
0.00034422
Loading maneuver chart data...
Computing Atmospheric mass density...
Loading historical data...
Loading historical data...
Loading historical data...
Loading historical data...
Loading historical data...
Loading historical data...
Loading historical data...

Documentation

Showing up to 5 results
|